Zurück zum Katalog

FENGYUN 1C DEB

AktivSSO
NORAD 31738·DEBRIS·🇨🇳 China

Gestartet May 10, 1999 von Taiyuan Satellite Launch Center

Loading…

Nächste Überflüge (nächste 24 Stunden)

TLE

AktuellSource: Space-Track

Epoche: Sep 12, 2026, 22:48 UTC

1 31738U 99025CEM 26255.95042582  .00001086  00000-0  67853-3 0  9999
2 31738  99.3422 327.9916 0305410  87.3898 276.2175 13.86123449660559

Verfolge FENGYUN 1C DEB in Echtzeit mit AllMySat

Download on the App Store